x

South Brooks (46132) Wave Buoy

9:00 - Tue 27th Sep 2016 All times are PDT. -7 hours from GMT.

  • Sig Wave height 4.6ft
  • Peak Period 9s
  • Wind
    20mph, 25mph gusts
  • Sea Temp 54°f
  • Luft Temp 55°f
  • Sea Pressure 1024.4mb
  • South Brooks
  • South Brooks

More Historic Weather Station data

Upgrade to MSW Pro to gain access to the past 30 days of data for over 8000 Wavebouys and Weather Stations around the globe.

Join Pro

Comparision Forecast

View Surf forecast
   
Di 09/27 9:00 4.5ft 9s 20 25 mph 1024.4mb 54f 55f
8:00 5ft 9s 20 25 mph 1024.4mb 55f 56f
7:00 5ft 8s 22 27 mph 1024.4mb 55f 56f
6:00 5ft 10s 20 22 mph 1024.8mb 55f 56f
5:00 5ft 10s 20 25 mph 1025mb 55f 56f
4:00 5.5ft 10s 18 22 mph 1025.5mb 56f 57f
3:00 5.5ft 10s 18 20 mph 1026.1mb 55f 56f
2:00 5ft 10s 18 20 mph 1026.3mb 55f 56f
1:00 5.5ft 10s 16 20 mph 1026.6mb 56f 56f
12:00 5.5ft 10s 13 18 mph 1026.8mb 56f 56f
11:00 5ft 10s 13 16 mph 1027mb 56f 55f
10:00 5ft 10s 13 16 mph 1026.9mb 56f 56f
9:00 5ft 10s 13 16 mph 1026.8mb 56f 56f
7:00 5.5ft 8s 13 18 mph 1026.2mb 56f 55f
6:00 6ft 10s 13 16 mph 1026mb 55f 55f
5:00 6ft 10s 11 13 mph 1025.7mb 55f 55f
4:00 6ft 10s 11 13 mph 1025.3mb 55f 55f
3:00 7ft 10s 13
mph
1025mb 55f 55f
2:00 7.5ft 10s 13
mph
1024.5mb 55f 55f
1:00 8ft 10s 13 16 mph 1023.8mb 56f 56f
12:00 8ft 10s 13 16 mph 1023.4mb 56f 56f
Mo 09/26 11:00 8ft 10s 13
mph
1022.7mb 56f 56f
10:00 7.5ft 10s 16 18 mph 1021.9mb 56f 56f
9:00 8ft 11s 20 22 mph 1021.2mb 57f 57f
8:00 8ft 11s 20 25 mph 1020.4mb 57f 57f
7:00 7ft 11s 22 27 mph 1019.4mb 57f 58f
6:00 7.5ft 11s 22 29 mph 1018.8mb 57f 58f
5:00 6.5ft 11s 22 27 mph 1018.5mb 58f 59f
4:00 6.5ft 11s 20 25 mph 1018.1mb 58f 57f
3:00 7ft 11s 9 11 mph 1017.7mb 57f 60f
2:00 7ft 11s 9 11 mph 1017.7mb 56f 59f
1:00 7.5ft 11s 11 13 mph 1017.8mb 56f 59f
12:00 8ft 10s 11 13 mph 1017.5mb 57f 58f
11:00 8.5ft 10s 13
mph
1017.5mb 57f 58f
10:00 9ft 9s 16 18 mph 1017.1mb 57f 59f
9:00 8.5ft 10s 13 18 mph 1017.7mb 57f 59f
8:00 8ft 8s 16 18 mph 1017.9mb 56f 58f
7:00 7.5ft 9s 13 18 mph 1018.3mb 56f 58f
6:00 7ft 9s 13 18 mph 1018.7mb 56f 58f
5:00 7ft 9s 16 18 mph 1019mb 56f 58f
4:00 6ft 10s 13 16 mph 1019.8mb 56f 57f
3:00 6ft 10s 13 18 mph 1020.3mb 56f 58f
2:00 5.5ft 10s 16 20 mph 1020.8mb 56f 57f
1:00 6ft 16s 16 18 mph 1021.5mb 55f 57f
12:00 6.5ft 16s 16 20 mph 1022.1mb 55f 57f
So 09/25 11:00 6.5ft 10s 18 20 mph 1022.5mb 55f 56f
10:00 7ft 10s 18 22 mph 1023.2mb 56f 57f
9:00 8ft 10s 20 25 mph 1023.8mb 56f 57f
8:00 9ft 10s 20 25 mph 1023.9mb 56f 56f
7:00 9ft 10s 22 25 mph 1023.9mb 57f 56f
6:00 9ft 7s 22 27 mph 1024.3mb 56f 56f
5:00 9ft 9s 25 31 mph 1024.8mb 56f 56f
4:00 9ft 6s 22 29 mph 1025.3mb 56f 56f
3:00 9.5ft 7s 22 29 mph 1025.7mb 56f 56f
2:00 10.5ft 10s 27 31 mph 1025.7mb 55f 55f
1:00 11ft 7s 25 31 mph 1025.8mb 55f 55f
12:00 11ft 10s 25 31 mph 1025.8mb 55f 55f
11:00 11ft 7s 27 36 mph 1025.4mb 55f 55f
10:00 10ft 11s 27 34 mph 1025.2mb 55f 55f
9:00 11ft 7s 27 34 mph 1024.8mb 55f 55f
8:00 11ft 8s 29 34 mph 1024.2mb 56f 55f
7:00 11.5ft 8s 29 36 mph 1023.7mb 56f 55f
6:00 11ft 7s 29 34 mph 1023.9mb 55f 55f
5:00 11ft 7s 27 36 mph 1023.9mb 55f 55f
4:00 11.5ft 8s 29 36 mph 1023.6mb 55f 55f
3:00 12ft 8s 31 40 mph 1023.2mb 55f 55f
2:00 13ft 8s 31 38 mph 1023.3mb 55f 55f
1:00 12.5ft 8s 31 40 mph 1022.9mb 55f 55f
12:00 13ft 7s 34 40 mph 1022mb 56f 55f
Sa 09/24 11:00 12ft 8s 34 40 mph 1021.9mb 55f 55f
10:00 12.5ft 7s 36 43 mph 1021.1mb 55f 55f
9:00 11.5ft 7s 34 43 mph 1021.3mb 56f 55f
8:00 11ft 7s 34 40 mph 1020.8mb 55f 55f
7:00 10.5ft 6s 34 40 mph 1020.8mb 55f 55f
6:00 9ft 6s 31 40 mph 1021.5mb 55f 55f
5:00 8ft 6s 31 36 mph 1022mb 56f 56f
4:00 7ft 6s 27 34 mph 1022.6mb 56f 55f
3:00 7.5ft 5s 27 34 mph 1022.8mb 56f 56f
2:00 7ft 11s 25 31 mph 1023.3mb 56f 56f
1:00 7.5ft 11s 27 31 mph 1023.4mb 56f 56f
12:00 8ft 11s 25 31 mph 1024.3mb 56f 56f
11:00 8ft 10s 22 27 mph 1024.4mb 56f 56f
10:00 8.5ft 10s 18 22 mph 1024.8mb 56f 56f
9:00 8.5ft 10s 13 16 mph 1025.5mb 56f 56f
8:00 8.5ft 10s 11 13 mph 1025.7mb 56f 56f
7:00 8ft 11s 9 11 mph 1024.8mb 56f 56f
6:00 8ft 11s 11 13 mph 1024.3mb 56f 56f